Stockport Young Athlete Quadrathlon
Sportcity
29 Jun 19

Invitation event times held from the ranking lists temporarily, as they were not included in the licence application
Has your performance not been assigned to your profile yet? Just click the envelope Notify beside your performance below to notify us and get it on your profile.
 
800 U15M
PosPerfName AG YearCoachClubSBPB 
Q2:23.43Daniel Akinradewo U15M2Kes SalmonManchester H2:20.72:20.7
Q2:24.65Alexander BostwickPBU15M2Desmond BrearWakefield2:24.652:24.65
Q2:24.90Callum WainPBU15M1 Macclesfield2:24.902:24.90
Q2:36.15Georgie IvanovPBU15M2 Lancashire Schs2:36.152:36.15
Q2:37.66Harvey MurphySBU15M1Andrew MihranianStockport2:37.662:37.59
Q2:40.14James Edward BellPBU15M1 Spenborough2:40.142:40.14
Q2:43.84Jonah Wall U15M2Andrew MihranianStockport2:36.32:33.5
Q2:51.07Louis EcobSBU15M1 Stockport2:51.072:45.25
Q2:54.05Frank HudsonPBU15M2 Liverpool H2:54.052:54.05
Q3:03.08Daniel McCannSBU15M1Andrew MihranianStockport3:03.082:51.37
800 U13M
PosPerfName AG YearCoachClubSBPB 
Q2:27.91Bradley Mabote U13M2 Wigan & District2:25.82:25.8
Q2:28.81Harry Parker-Mclain U13M2 Crewe & Nantwich2:24.222:24.22
Q2:29.49Charlie OrphanidesPBU13M2 Macclesfield2:27.92:27.9
Q2:38.80Jacob HughesPBU13M2 Knutsford Harriers & Athletics Club2:38.802:38.80
Q2:39.44Orlando HudsonPBU13M2 Liverpool H2:39.442:39.44
Q2:43.37Samuel PearcePBU13M2 Knutsford Harriers & Athletics Club2:43.372:43.37
Q2:43.80Sammy Pickerill U13M2 Southport Waterloo2:28.22:24.8
Q2:45.69Archie Varley U13M2 Crewe & Nantwich2:39.82:39.8
Q2:45.94Jacob Tidswell U13M1 Macclesfield2:42.12:42.1
Q2:47.36Alfie CarterPBU13M2 Crewe & Nantwich2:47.362:47.36
Q2:48.14Jackson UprichardPBU13M1 Stockport2:48.142:48.14
Q2:49.75Henry SmithPBU13M1 Crewe & Nantwich2:49.752:49.75
Q2:54.33Rhys WatsonPBU13M2Andrew MihranianStockport2:54.332:54.33
Q2:56.21Oliver EcobPBU13M1Andrew MihranianStockport2:56.212:56.21
Q2:57.84Samuel Pickering U13M1 Crewe & Nantwich2:48.62:48.6
Q3:02.87Nelson MisantoniPBU13M1 Stockport3:02.873:02.87
Q3:02.99William RileyPBU13M2 Cannock & Stafford3:02.993:02.99
Q3:08.25Lewis ShawPBU13M1 Warrington AC3:08.253:08.25
Q3:08.30Seb OgleyPBU13M1 Stockport3:08.303:08.30
800 U15W
PosPerfName AG YearCoachClubSBPB 
Q2:19.37Olivia Brown U15W2Peter JohnsonSale Harriers Manchester2:17.412:17.41
Q2:24.66Neve DavenportPBU15W2 Trafford2:24.662:24.66
Q2:26.51Abigail RickardPBU15W1Sharon MorrisBirchfield H2:26.512:26.51
Q2:29.11Erin HuntPBU15W2Susan TaylorWakefield2:29.112:29.11
Q2:32.31Amy HuntPBU15W2Susan TaylorWakefield2:32.312:32.31
Q2:38.71Charli Sampson U15W2 Charnwood2:33.22:32.24
Q2:39.14Jena DickinsonSBU15W2Ian HallidayBury2:39.142:37.68
Q2:39.37Blythe CordwellSBU15W1 Chorley ATC2:39.372:36.8
Q2:40.83Sophia DeansSBU15W2Sharon MorrisBirchfield H2:40.832:36.0
Q2:41.03Charlotte Wilkinson U15W2Joe Frost 2:39.892:39.89
Q2:41.19Ellie Cartledge U15W1 Scunthorpe2:38.402:38.40
Q2:44.22Mary Seymour U15W1 Stockport2:34.92:34.9
Q2:44.28Amber Hughes U15W1Barrie HughesSouthport Waterloo2:39.572:34.9
Q2:44.63Libby MartinPBU15W1Andrew MihranianStockport2:44.632:44.63
Q2:47.27Amelia JordanPBU15W1Joseph GreenWirral2:47.272:47.27
Q2:48.60Amelia Smithers U15W1 Warrington AC2:39.32:33.3
Q2:49.89Iona Cossens U15W2 Blackpool, Wyre & Fylde2:45.32:45.3
Q2:55.05Olivia RileyPBU15W2 Cannock & Stafford2:55.052:55.05
Q2:55.83Scarlett StapletonSBU15W1 Vale Royal2:55.832:53.77
Q2:56.18Ruby WisbeyPBU15W1 West Cheshire2:56.182:56.18
Q2:56.57Kate Horobin U15W1Joe FrostStockport2:49.62:49.6
Q2:57.89Melissa CoxSBU15W2Mike FrostStockport2:57.892:44.40
Q2:58.98Anya Dunne U15W2Mike FrostStockport2:58.032:58.03
Q2:59.79Niamh ProcterSBU15W2 Southport Waterloo2:56.522:56.52
Q3:02.67Grace Jasmine Taylor U15W1Andrew MihranianStockport3:00.72:49.06
Q3:07.66Katelyn SwiftSBU15W1Dave BrownLiverpool Pembroke Sefton3:07.662:56.5
Q3:16.00Poppy PriestleyPBU15W2 Stockport3:16.003:16.00
Q3:32.76Abbie Hirst U15W2John CrippsEast Cheshire3:24.93:16.99
QDNSRebecca Leather U15W2Joe FrostStockport 3:21.55
QDNSElla Gillespie U15W1Jessica Taylor-JemmettSale Harriers Manchester2:33.282:33.28
QDNSMillie Everett U15W1 Stockport 3:00.9
800 U13W
PosPerfName AG YearCoachClubSBPB 
Q2:30.96Savana Smith U13W2 Charnwood/Ivanhoe Robins2:24.12:24.1
Q2:39.55Pip NuttallPBU13W2 Horwich2:39.552:39.55
Q2:41.19Hannah Culshaw U13W2 Wigan & District2:34.02:34.0
Q2:42.29Aimee Phillips U13W2 West Cheshire2:34.342:34.34
Q2:42.71Daisy Kaye U13W2Joe McColganAmber Valley & Erewash2:36.002:36.00
Q2:43.20Seren Redfern U13W2Joe FrostStockport2:36.242:36.24
Q2:43.77Tia GroverSBU13W2 Sale Harriers Manchester2:35.252:35.25
Q2:44.00Lucy Salter U13W2 Stockport2:34.992:34.99
Q2:45.13Sophie HaslamPBU13W1 West Cheshire2:39.52:39.5
Q2:45.94Jessica Lord U13W2Kerrie Wood DoyleStockport2:40.672:40.67
Q2:47.14Macy Brett U13W1 West Cheshire2:44.642:44.64
Q2:47.39Ella Buckley U13W1 Stockport2:45.592:45.59
Q2:47.49Ella Jones U13W2 Chester-le-Street2:33.92:33.9
Q2:49.65Amie StockPBU13W2 Wigan & District2:49.652:49.65
Q2:49.91Marianne KnuckeyPBU13W1 Macclesfield2:49.912:49.91
Q2:50.77Emily OwenPBU13W1 West Cheshire2:50.772:50.77
Q2:52.52Thea BrownSBU13W2 Sale Harriers Manchester2:52.522:49.6
Q2:52.56Madeline MercerPBU13W2Paul WatersWest Cheshire2:52.562:52.56
Q2:52.98Laila HerstellPBU13W2Jessica Taylor-JemmettSale Harriers Manchester2:52.982:52.98
Q2:53.79Layla Wholey U13W1 Blackpool, Wyre & Fylde2:44.32:44.3
Q2:54.66Jada TaylorPBU13W2Sharon MorrisBirchfield H2:54.662:54.66
Q2:58.57Lily EdsonPBU13W2 Sale Harriers Manchester2:58.572:58.57
Q2:58.86Lydia GarrodPBU13W1 Stockport2:58.862:58.86
Q2:59.01Sara PearsonPBU13W2 West Cheshire2:59.012:59.01
Q2:59.23Amelia BlakeleyPBU13W1Andrew MihranianStockport2:59.232:59.23
Q3:00.09Chloe LyonsPBU13W2 Greater Manchester Schs3:00.093:00.09
Q3:00.74Lucy Mitchell U13W1 Southport Waterloo2:49.22:49.2
Q3:02.72Amy Hewitt U13W1Ian HallidayLeigh2:59.532:59.53
Q3:04.43Aisling Brooks U13W1 Stockport2:58.142:58.14
Q3:09.15Imogen Webber U13W1 Stockport2:47.282:47.28
Q3:11.34Honor Worrell U13W2 Harrogate3:02.843:02.84
Q3:14.58Charlotte Hughes U13W1Barrie HughesSouthport Waterloo2:59.42:59.4
Q3:15.56Amelia Jones U13W1 Chester-le-Street2:54.12:54.1
Q3:16.30Amy Starkey U13W2Ian HallidayEast Cheshire3:02.362:51.3
Q3:17.44Louisa Finn U13W  Knutsford harriers  
Q3:25.46Holly Hudson U13W1 Southport Waterloo3:08.93:08.9